Location: Unspecified
(43.4354°N, 0.0000°E)
Time: 14:37:53
(UTC+00:00)

Vanguard 2 Rocket - Pass Details

Date: 26 June 2019
Orbit: 553 x 3327 km, 32.9° (Epoch: 24 August)

Event Time Altitude Azimuth Distance (km) Brightness Sun altitude
Rises 23:07:34 0° 260° (W) 4,122 10.3 -22.0°
Reaches altitude 10° 23:10:00 10° 254° (WSW) 3,438 9.8 -22.1°
Maximum altitude 23:18:43 48° 183° (S) 2,455 8.6 -22.5°
Drops below altitude 10° 23:33:28 10° 117° (ESE) 5,661 10.6 -22.9°
Sets 23:38:48 0° 113° (ESE) 6,980 11.1 -23.0°
